Theta_e
334 337 336 335 334 335 335 335 336 337 339 339 335 331 331 333 327 327 338 345 345 350 353 349 349 351 349 350 352 352 351 352 352 350 350 349 348 348 348 349 350 351 351 351 353 354 353 352 353 352 350 347 344 342 343 343 343 344 346 347 348 348 348 348 348 348 348 345 345 347 349 350 350 351 353 352 352 353 354 354 354 353 353 354 354 354 355
336 337 336 335 332 332 333 335 337 338 338 340 339 338 336 335 332 330 334 343 350 352 349 349 350 350 350 351 351 350 350 350 351 352 351 350 349 350 351 351 352 353 353 353 354 355 355 353 353 354 354 354 352 349 348 346 344 344 345 346 347 348 348 349 349 349 349 348 346 345 346 346 345 348 352 354 354 354 355 355 354 354 354 354 355 355 355
333 335 335 333 332 333 334 334 338 340 340 340 341 340 341 339 336 334 334 343 351 350 348 349 349 348 350 350 350 350 349 348 348 350 351 351 351 352 352 352 352 352 352 351 351 352 352 352 352 351 352 353 350 347 346 347 347 347 347 346 346 347 347 348 349 349 349 350 348 346 347 346 346 346 348 351 353 354 355 355 353 353 354 354 354 355 355
328 332 333 333 332 333 335 336 339 340 339 340 339 340 343 342 340 340 338 342 348 350 349 348 347 348 348 348 349 350 349 347 347 348 348 349 349 350 351 351 349 347 346 346 346 347 348 350 351 351 353 354 351 345 344 346 346 347 348 348 348 348 349 349 349 349 349 350 349 348 347 347 347 346 346 347 348 349 351 354 353 352 352 353 353 354 354
326 330 332 332 328 327 331 336 338 338 338 338 336 338 339 340 341 341 341 344 348 349 348 347 346 346 346 346 347 348 348 348 348 347 346 346 347 348 348 349 347 345 344 344 345 346 346 346 347 348 351 353 354 352 349 346 345 345 345 346 347 349 350 351 352 352 352 351 351 350 349 347 346 346 346 347 347 346 347 350 352 353 353 353 353 353 354
323 328 329 327 324 324 330 336 337 337 337 337 337 337 336 335 337 338 341 347 348 347 346 345 345 345 344 345 345 345 347 347 346 346 345 345 346 347 347 348 347 346 345 345 345 346 346 346 346 346 346 349 352 354 352 350 350 348 345 345 346 347 349 352 354 354 355 354 353 352 351 350 348 346 346 346 347 347 346 346 347 349 352 354 355 354 354
322 326 325 322 322 327 334 337 336 334 335 336 337 338 336 336 337 338 342 346 346 345 344 343 343 343 342 342 343 343 344 345 345 345 345 345 346 346 347 347 347 347 347 346 346 346 346 347 347 347 347 348 349 351 352 353 354 351 348 348 348 347 348 352 354 354 355 355 355 354 353 352 351 349 347 347 346 347 347 346 345 346 349 352 355 355 355
322 322 320 321 326 331 335 335 334 334 335 336 337 339 339 337 337 337 340 343 344 343 343 343 342 342 341 341 341 341 341 342 343 342 342 343 345 346 347 347 346 347 347 347 347 347 347 348 348 349 349 348 350 351 352 353 353 352 352 353 352 351 351 353 353 352 353 354 355 356 355 354 354 352 351 350 349 347 347 347 347 347 346 349 351 352 353
322 319 319 323 327 329 332 334 334 334 335 336 337 339 340 338 337 338 339 342 344 343 343 343 342 342 341 340 339 339 339 340 341 341 341 342 343 345 346 345 345 345 346 347 347 348 348 348 348 348 348 348 349 351 353 353 352 352 353 354 353 353 353 352 352 352 352 352 353 354 353 352 352 351 351 352 351 349 348 348 348 348 346 347 348 349 349
322 320 320 322 323 325 332 334 332 333 334 334 335 338 340 339 337 337 338 341 344 344 343 344 343 342 342 340 338 338 338 339 340 341 341 342 342 343 344 344 344 344 345 347 347 347 348 348 348 347 347 347 348 348 350 352 351 351 351 352 351 352 352 352 352 352 351 351 352 351 350 349 350 349 350 351 351 350 349 350 350 349 349 349 348 348 348
320 319 319 320 322 328 334 333 331 332 332 333 334 336 337 338 336 335 336 339 342 344 343 343 343 343 342 340 337 337 337 338 339 340 340 341 341 342 342 343 344 344 345 345 346 347 348 348 348 347 346 345 344 344 345 347 348 349 350 351 351 350 351 352 352 351 351 350 350 350 349 348 349 349 348 348 349 349 349 349 349 349 349 349 349 348 348
319 319 318 319 325 332 335 333 331 332 332 333 333 332 334 337 336 335 336 338 339 340 341 342 342 343 342 339 337 336 337 337 338 339 340 341 341 341 342 342 342 343 344 345 346 347 348 347 348 347 347 346 345 344 345 346 348 349 349 350 349 347 347 350 351 350 349 348 347 347 346 346 346 347 347 348 348 348 347 347 348 348 348 348 348 348 347
318 319 318 320 327 334 334 332 332 332 331 330 330 332 336 337 336 336 337 338 338 338 339 340 340 340 338 336 335 336 336 337 337 338 340 340 341 340 340 341 343 343 343 344 345 346 346 346 346 346 347 347 346 346 346 346 347 348 347 347 347 346 347 348 348 347 346 345 343 343 344 344 343 344 345 347 348 348 348 348 347 347 348 348 348 347 347
319 321 319 320 327 333 334 332 332 331 330 329 331 336 338 337 337 338 337 337 338 337 338 338 337 336 335 334 335 336 336 336 336 337 337 338 338 338 339 340 341 341 342 343 343 344 343 344 345 345 346 346 345 346 346 346 346 346 346 346 346 347 347 347 346 346 346 344 344 344 344 344 344 344 346 347 347 349 350 349 349 348 349 349 348 348 348
322 321 320 320 326 332 333 332 331 331 332 335 336 338 339 338 338 339 338 338 338 337 336 336 335 333 332 333 334 334 334 335 337 336 336 335 335 336 337 337 338 339 340 340 340 341 341 342 343 344 344 345 344 344 344 345 345 346 346 346 345 345 346 346 346 346 346 345 345 345 345 345 345 346 347 347 348 349 349 349 348 348 348 348 347 348 348
322 320 323 327 332 334 333 333 335 335 336 339 339 339 339 339 339 339 339 339 339 337 335 335 334 331 330 330 331 331 331 332 333 334 335 335 334 334 334 334 335 337 337 337 338 338 339 340 341 341 342 342 342 343 343 343 343 344 345 345 344 345 345 345 345 345 345 345 345 344 345 345 345 345 346 346 347 347 347 346 346 346 346 346 346 346 346
327 328 332 335 336 335 334 336 338 338 338 339 339 339 339 339 338 339 339 339 339 337 336 335 333 330 328 326 327 327 327 327 328 330 332 333 334 333 332 331 331 332 333 333 334 334 335 337 337 338 339 339 339 339 339 341 342 342 342 343 343 344 343 343 343 343 343 343 343 343 343 342 343 344 344 344 345 345 344 344 343 343 343 343 343 343 342
332 334 336 336 336 336 336 336 338 338 338 339 339 339 339 339 339 339 339 339 338 337 336 334 332 330 327 326 325 324 325 325 325 325 325 327 329 329 329 329 328 328 328 329 329 330 330 330 330 331 333 335 336 335 335 337 339 339 340 340 340 340 340 340 339 340 340 340 341 342 342 342 342 342 342 343 343 342 342 342 341 341 341 339 339 338 336
332 334 336 336 336 336 336 337 337 338 339 339 339 339 339 339 339 338 338 338 338 337 336 334 331 329 328 327 326 324 324 324 323 321 319 318 319 320 321 323 323 322 321 322 323 324 324 323 322 322 324 328 330 330 331 334 334 335 335 335 334 334 334 334 334 336 337 337 337 339 340 341 341 340 340 339 339 338 338 337 336 335 334 334 333 332 332
333 335 336 336 336 336 337 337 337 338 338 338 338 338 338 338 338 338 338 338 338 337 335 332 331 330 329 328 327 326 325 324 324 322 319 316 314 314 315 316 316 314 312 312 312 314 315 316 315 316 321 325 327 327 328 328 327 328 329 328 328 328 328 328 330 332 335 336 336 336 337 337 338 338 337 336 336 335 335 334 334 333 332 332 332 332 332
333 335 335 335 335 335 336 337 338 338 338 337 337 337 337 337 337 337 337 337 337 336 334 332 331 331 331 331 330 328 327 325 323 322 321 318 315 314 313 313 313 313 312 311 310 309 309 309 308 311 316 322 324 326 326 325 325 325 326 326 327 327 327 327 327 328 330 331 331 331 332 332 333 333 332 331 331 331 329 329 329 329 330 329 329 330 330
329 332 334 335 334 334 335 337 338 338 337 337 337 337 337 337 337 336 336 335 335 334 333 332 332 331 332 332 331 330 329 326 324 321 320 317 315 315 316 317 317 318 317 317 316 314 313 312 310 310 311 313 316 319 320 321 320 321 324 325 327 328 329 329 328 328 328 328 328 327 328 328 329 329 328 328 328 328 327 327 327 327 327 327 326 326 328
329 332 335 336 335 334 336 337 338 337 337 337 337 337 337 337 336 336 335 334 333 333 331 331 331 332 332 332 331 331 330 329 327 325 323 320 318 318 319 319 319 320 321 321 321 320 319 319 317 316 315 314 313 313 313 313 312 314 317 321 325 328 329 329 328 328 328 327 327 327 327 327 327 327 327 326 326 325 324 324 325 327 328 328 328 328 329
332 332 334 334 333 334 336 337 337 337 337 337 337 337 337 337 336 335 334 334 334 333 332 331 332 332 332 332 332 331 330 329 330 328 325 322 321 322 322 321 320 321 322 322 323 323 322 322 321 320 320 319 318 316 314 313 311 311 313 317 322 326 328 328 327 327 326 325 326 326 326 325 325 325 324 322 320 318 316 316 317 319 321 322 323 323 323
333 333 333 333 332 334 335 336 336 336 336 336 337 337 337 337 336 335 334 334 333 333 333 333 333 332 333 332 331 331 330 330 329 326 323 321 322 323 324 322 321 322 323 324 324 324 324 323 323 322 322 321 320 320 319 316 315 313 314 315 319 323 326 326 327 326 324 323 324 325 326 326 326 326 324 322 320 317 314 313 314 315 316 316 317 317 316
335 334 333 333 333 333 333 333 334 335 335 335 335 336 336 336 335 335 335 334 333 333 333 333 333 333 332 332 331 331 330 329 328 327 326 326 326 327 326 324 323 324 325 325 326 326 326 325 324 324 323 322 321 321 321 320 319 317 316 315 315 317 320 322 323 324 324 324 323 324 325 326 327 327 326 324 322 318 315 314 314 314 315 315 315 315 314
334 332 332 333 331 331 331 332 333 333 333 333 333 334 334 334 334 335 334 334 334 333 333 333 333 333 333 332 332 331 330 329 329 329 330 330 329 329 329 328 327 327 327 327 327 327 327 327 326 325 324 323 323 323 322 322 322 320 320 319 318 317 315 315 317 320 321 322 322 323 325 326 327 327 327 326 325 323 322 320 318 316 316 316 315 315 315
332 330 332 332 330 331 332 331 332 333 332 332 332 332 332 332 332 333 333 333 333 332 332 332 332 332 332 332 331 331 330 330 331 331 331 330 330 330 330 330 330 329 329 329 329 328 328 328 327 327 325 325 325 325 324 323 323 322 321 322 325 325 323 320 321 320 319 320 324 326 327 327 327 327 327 326 326 326 325 324 322 320 319 318 318 318 318
332 332 333 333 332 333 334 332 332 333 332 331 331 331 331 331 331 331 331 331 330 330 329 329 330 330 330 330 330 330 330 330 331 331 331 331 331 330 331 331 330 329 330 330 330 329 329 328 328 327 326 326 326 326 325 324 324 323 321 321 325 327 327 325 325 324 322 322 323 324 325 326 327 327 327 326 326 326 326 325 325 324 322 321 320 320 320
333 333 333 333 333 332 332 332 332 332 332 331 331 330 330 330 330 330 330 330 329 328 327 327 328 329 329 328 328 328 328 328 329 329 329 329 329 329 330 330 329 329 329 329 329 329 329 329 328 327 326 326 326 326 326 325 324 323 323 320 320 322 321 321 323 324 324 322 320 320 323 325 326 326 326 326 325 325 325 325 325 324 323 322 322 322 322
334 333 332 333 332 331 332 333 332 331 331 331 330 329 329 329 329 329 328 327 326 325 325 324 324 325 326 326 326 327 327 328 327 327 327 327 328 328 328 328 327 328 328 328 328 328 328 328 328 327 326 326 326 325 326 325 325 325 325 323 321 319 316 315 319 323 324 324 323 322 323 324 323 323 324 325 325 325 324 324 324 324 324 323 323 323 323
333 332 332 332 332 331 332 332 332 331 331 330 329 329 328 327 326 324 322 321 320 319 319 319 318 317 316 316 318 320 320 321 321 322 323 323 323 322 322 323 323 323 324 325 325 325 326 326 326 325 324 324 325 325 325 325 325 325 325 324 324 323 319 315 317 319 322 324 324 324 323 323 322 322 322 323 323 324 324 324 323 323 323 323 323 323 323
332 332 332 332 332 332 332 332 331 331 330 329 328 328 326 324 322 319 317 316 316 315 315 315 313 311 310 311 312 312 311 311 313 315 317 319 318 316 314 314 314 315 316 316 318 320 321 322 322 321 320 319 320 321 322 322 323 325 324 324 324 324 321 318 317 318 320 323 324 323 323 323 323 323 322 322 322 322 323 323 323 323 323 323 322 323 322
328 328 328 329 330 330 331 331 330 330 329 328 327 326 324 321 318 316 314 315 315 315 315 315 313 312 313 315 315 314 313 313 314 314 315 317 317 314 311 311 313 313 312 313 315 317 317 315 315 318 319 319 319 318 318 317 320 322 323 323 324 324 323 322 321 321 322 323 323 322 321 321 322 323 322 322 322 322 322 322 322 322 322 322 322 322 321
326 326 326 327 329 329 329 329 329 329 328 327 326 324 322 320 317 314 313 315 316 316 316 315 314 315 317 317 317 317 317 316 315 313 314 315 314 312 313 315 317 317 316 315 316 316 315 311 310 314 318 320 321 321 319 318 319 321 321 322 322 323 323 323 323 322 323 323 323 322 322 321 322 322 321 321 322 322 321 321 321 321 321 321 321 321 319
330 332 331 330 331 330 329 328 328 328 327 327 326 324 322 320 316 312 313 315 316 315 315 315 315 316 318 318 318 319 318 316 315 314 314 314 314 313 315 318 320 320 320 319 318 317 316 314 311 310 313 317 320 319 317 316 318 320 320 320 321 322 322 322 323 323 323 323 323 322 322 322 322 321 320 320 321 321 321 320 321 320 320 320 320 320 320
331 331 328 328 331 331 330 328 328 327 326 325 324 324 322 320 316 313 314 315 315 314 314 315 316 317 318 319 319 319 317 316 315 314 314 313 314 314 315 317 318 318 318 319 319 318 318 316 313 311 314 317 318 315 311 310 313 316 318 319 320 321 321 321 321 322 322 322 322 322 322 322 322 321 321 321 320 320 320 320 320 320 320 319 319 319 320
328 328 325 325 328 330 329 327 326 326 325 324 323 323 322 319 315 314 314 314 313 313 314 315 317 318 318 318 318 317 316 314 313 312 311 311 312 314 315 315 316 316 317 318 318 318 317 315 313 314 317 318 316 313 311 309 310 313 316 318 318 318 318 318 319 319 319 319 320 320 320 320 320 320 320 320 320 320 320 320 319 319 319 319 318 319 319
324 326 325 325 326 328 327 326 325 326 325 324 322 322 322 319 315 314 314 314 313 314 314 316 317 317 317 316 317 316 313 310 310 311 312 311 312 314 315 315 315 316 316 316 315 315 313 311 312 315 316 315 314 314 313 311 311 313 316 317 316 316 316 316 316 316 316 317 317 317 317 317 317 317 317 318 318 318 319 318 317 317 317 318 318 318 318
323 325 325 325 326 326 326 326 326 326 325 323 322 322 322 319 315 314 314 314 314 314 314 315 316 316 316 317 317 315 310 307 308 311 313 312 311 312 314 315 314 312 311 311 313 314 312 311 312 315 314 313 312 314 313 312 312 314 315 316 316 316 316 316 315 315 315 315 315 315 315 315 316 316 316 316 316 317 317 317 317 316 316 317 317 317 317
324 324 324 324 326 326 326 326 326 326 325 324 322 322 322 320 316 314 314 314 314 314 315 315 316 317 317 316 316 313 309 308 309 311 312 313 313 313 313 315 315 313 312 312 313 314 312 311 312 314 314 313 313 313 312 312 312 314 314 315 315 315 315 315 315 314 315 315 315 314 314 315 315 315 315 315 315 316 316 316 316 316 316 316 316 316 317
323 323 323 323 324 325 325 326 326 326 325 324 322 321 321 319 316 315 315 315 314 314 315 315 316 317 316 314 312 310 310 310 311 311 311 312 314 315 314 314 314 314 313 312 312 312 312 312 312 312 312 312 312 311 310 310 312 313 313 313 314 314 314 314 314 314 314 315 314 314 314 314 314 314 314 314 314 315 315 315 315 316 316 316 316 316 316
321 321 320 321 321 321 322 324 325 325 325 324 323 321 320 318 316 315 316 315 315 315 315 315 316 317 315 311 309 309 310 310 311 312 313 312 313 314 314 315 315 313 311 310 311 313 313 313 313 312 310 310 310 310 309 310 312 312 313 313 313 313 313 313 313 313 314 314 314 314 313 314 314 314 314 314 314 314 314 314 314 315 315 315 315 315 315
322 321 320 320 320 319 318 319 322 324 325 323 322 321 319 317 316 316 316 316 315 315 316 316 316 316 313 309 308 311 313 312 312 313 314 314 313 312 312 313 313 313 310 310 312 313 313 313 312 311 309 309 309 309 310 311 312 312 312 312 312 313 313 313 313 313 313 313 313 313 313 313 313 313 313 313 313 313 313 313 313 313 314 314 314 314 314
323 322 321 320 321 321 319 318 320 323 324 323 322 320 318 317 316 316 315 315 315 316 316 316 316 315 311 309 310 312 313 313 313 314 315 315 315 314 311 311 312 313 311 310 312 313 313 312 311 310 309 309 309 308 309 311 312 311 311 312 312 312 312 312 312 313 313 313 312 312 313 313 313 313 313 313 313 313 313 313 313 313 313 313 313 313 313
324 324 322 321 322 323 321 318 319 322 324 323 321 319 318 316 316 316 315 315 315 316 316 316 316 313 310 310 311 312 312 311 312 313 313 314 315 314 312 311 312 313 311 311 312 313 312 311 310 309 308 308 308 308 310 311 311 311 311 311 311 311 311 312 312 312 312 312 312 312 312 312 312 312 312 312 312 312 312 312 312 312 312 312 312 312 312
324 324 324 322 322 323 322 319 318 320 322 322 321 319 317 316 316 315 314 315 315 316 316 316 314 311 310 310 310 311 311 312 313 312 312 312 313 312 310 310 311 311 310 311 312 312 310 309 308 307 306 306 305 307 309 310 310 310 310 310 310 310 310 310 310 310 311 311 311 311 311 311 311 311 311 311 311 311 311 311 311 311 311 311 311 311 311
324 324 324 323 323 323 323 321 318 319 321 322 321 319 318 317 315 314 314 315 316 316 316 315 313 311 310 309 308 309 311 313 314 313 312 312 313 312 312 312 312 310 309 310 310 308 307 306 305 304 303 303 304 306 308 309 309 309 309 309 309 309 309 309 309 309 309 309 310 310 310 310 310 310 310 310 310 310 310 310 310 310 310 310 310 310 310
323 324 325 324 323 324 323 321 319 318 319 320 320 319 319 318 316 315 315 316 316 316 316 315 313 311 309 308 308 310 312 313 314 314 314 313 313 313 313 313 311 309 308 309 308 306 304 304 303 302 302 303 304 305 307 307 307 307 308 308 308 308 308 308 308 308 308 308 308 308 309 309 309 309 309 309 309 309 309 309 309 309 309 309 309 309 308
323 324 325 324 324 324 324 322 320 319 318 318 319 319 319 318 316 315 316 316 316 316 316 315 314 312 310 309 310 312 312 312 312 313 313 313 312 312 313 312 310 307 307 307 306 304 302 303 303 302 302 303 303 304 304 304 304 305 306 307 307 308 308 307 307 307 308 308 308 308 308 309 309 309 309 309 309 308 308 308 308 308 308 307 307 307 307
323 324 324 324 324 324 324 323 322 320 319 319 319 319 319 318 317 316 316 316 316 316 316 315 315 314 312 311 312 313 312 311 312 312 312 312 312 312 311 310 309 306 304 304 304 303 303 303 303 302 302 302 303 303 302 302 302 304 305 305 306 308 308 307 307 307 307 307 308 308 308 308 308 308 308 308 308 308 307 307 307 307 307 306 306 306 306
323 324 324 324 324 324 323 323 323 322 321 320 320 320 319 318 317 317 317 317 316 316 316 316 315 314 313 313 313 314 313 312 312 312 312 312 312 311 309 308 307 306 304 304 304 304 303 302 302 302 302 302 302 303 302 302 302 303 303 303 305 306 307 307 307 308 307 307 307 307 307 307 307 308 307 307 307 306 306 306 306 306 306 306 306 306 305
Wind_Speed
6 5 3 2 2 3 4 3 3 3 2 3 6 11 8 2 5 5 4 4 2 5 5 4 5 5 6 7 8 7 6 4 2 8 14 17 19 19 17 15 15 15 16 16 15 15 16 16 16 17 18 19 21 22 22 22 21 21 22 21 20 20 19 19 18 16 16 17 18 18 18 18 17 16 15 14 14 14 14 13 13 12 12 12 12 12 12
3 3 3 1 2 2 2 2 2 4 1 1 2 7 9 7 9 11 9 5 2 6 4 4 5 5 6 8 8 9 9 8 6 5 10 14 15 15 13 12 11 10 11 12 11 10 11 12 13 14 14 16 18 19 20 22 22 21 22 22 21 20 20 19 18 17 17 17 18 18 17 17 16 16 15 14 14 14 14 13 13 12 12 12 12 12 12
3 5 4 2 3 2 1 2 3 5 3 2 2 2 4 5 9 12 12 8 4 4 3 6 9 10 11 10 10 11 10 9 10 11 12 13 12 13 12 11 10 10 9 9 9 8 8 9 11 13 14 16 17 17 18 20 21 21 21 22 22 21 20 19 18 18 18 17 18 18 17 16 16 16 16 16 16 16 14 14 14 14 14 13 13 13 12
3 6 6 5 4 1 1 3 4 4 3 3 3 3 3 3 5 8 11 9 5 5 6 10 13 14 14 13 12 11 11 10 9 9 11 13 12 12 12 11 11 11 10 9 8 6 7 8 10 11 12 14 17 18 20 20 19 18 19 20 21 21 20 19 18 18 18 18 18 18 18 17 16 15 16 16 17 18 16 14 14 15 14 14 14 14 13
4 6 7 7 5 3 2 2 5 4 3 2 2 2 3 5 5 4 9 6 6 8 8 10 11 12 13 13 13 13 12 12 9 9 10 9 9 9 9 10 10 9 8 6 5 4 6 9 11 13 12 12 13 15 18 20 20 19 19 19 21 20 20 18 17 17 17 17 17 17 17 17 17 16 16 16 16 17 16 15 14 14 14 13 14 14 14
4 5 6 7 6 5 1 4 5 4 3 2 2 2 4 6 4 4 8 3 9 9 9 11 12 13 15 14 14 14 13 13 12 11 11 9 8 7 7 7 7 6 6 6 5 4 6 9 11 14 15 14 13 12 14 17 17 18 18 18 20 20 19 17 15 15 15 15 16 16 16 15 16 17 17 16 16 16 16 16 16 16 14 12 13 13 14
2 2 5 7 5 2 1 4 4 3 4 2 2 2 3 4 4 6 6 4 11 11 13 15 16 18 18 16 16 16 13 13 12 11 11 10 10 9 8 6 4 4 5 5 5 5 8 10 10 10 12 14 13 13 14 14 14 16 16 16 18 18 17 16 15 15 14 14 14 14 14 13 14 16 17 17 16 16 16 16 17 17 17 15 13 13 13
2 2 4 5 2 1 2 3 2 1 2 1 2 1 2 3 2 4 2 5 11 13 15 16 15 17 18 17 17 16 13 12 12 10 9 10 11 11 9 7 6 6 6 6 6 6 8 10 8 6 8 11 11 11 12 13 14 14 14 14 14 14 14 14 14 14 14 13 13 13 12 12 12 14 16 16 16 16 16 17 17 18 19 18 16 15 15
3 4 3 1 2 4 4 3 2 1 2 2 1 2 1 2 2 3 2 5 11 12 13 14 13 13 14 14 14 13 11 11 12 12 10 10 12 12 10 8 6 5 6 6 6 5 5 7 8 8 9 9 10 11 10 11 12 13 13 14 13 13 14 14 14 14 13 12 12 13 13 12 11 11 11 12 14 15 16 16 17 18 19 19 18 17 18
2 5 4 2 3 4 3 3 5 5 5 6 5 2 1 1 3 7 8 1 9 11 9 11 12 8 8 8 8 9 9 9 11 13 12 12 13 12 10 8 6 4 5 6 6 5 3 3 5 9 11 10 10 10 10 9 10 11 11 12 13 13 13 13 13 13 12 11 12 12 12 12 12 11 11 11 13 14 15 16 17 17 17 18 19 18 19
3 5 5 3 2 1 4 5 6 7 7 7 4 1 1 2 5 5 10 9 1 5 3 6 9 6 4 5 5 6 8 8 10 12 13 14 13 12 11 9 6 5 4 5 6 6 5 3 3 7 11 12 11 11 9 8 9 9 9 10 12 12 10 11 12 12 12 12 12 12 12 12 11 10 11 12 13 13 14 16 17 17 16 17 17 18 19
3 4 5 3 2 4 6 6 5 6 6 6 3 1 2 2 5 4 5 8 7 8 7 1 2 2 4 6 6 7 8 10 10 12 14 15 14 14 14 12 9 7 5 5 7 8 7 6 5 5 7 9 10 11 10 9 10 10 10 11 11 10 10 11 13 12 12 13 12 13 16 17 15 12 12 12 12 13 15 16 16 16 15 14 15 17 18
3 3 5 2 2 4 6 6 5 6 6 5 1 2 3 4 4 3 1 3 6 9 10 9 8 9 10 11 10 10 11 11 12 13 15 16 16 16 16 15 13 11 9 8 7 7 6 5 4 4 4 5 6 6 6 7 10 11 11 10 11 11 13 14 15 13 12 13 14 16 19 20 19 18 16 14 11 11 11 13 14 14 13 13 15 16 16
3 3 5 2 2 2 4 7 8 7 4 1 2 4 7 9 8 6 3 3 8 11 14 13 12 12 14 13 13 14 13 13 13 14 15 16 15 15 16 16 15 16 16 14 11 10 8 7 6 4 2 3 5 6 5 4 4 5 6 7 9 11 12 13 12 10 9 10 12 15 16 15 15 16 17 15 12 9 8 9 10 9 10 12 13 13 14
2 3 4 3 1 2 3 6 7 4 2 1 2 5 8 8 8 9 7 7 11 16 16 14 12 13 13 13 15 16 15 14 14 15 17 18 16 17 19 20 18 18 20 19 17 15 13 12 11 9 6 8 10 10 10 10 8 6 4 4 7 9 10 9 8 7 7 7 9 10 10 10 9 10 11 10 9 8 9 9 8 8 8 9 10 10 12
3 4 2 1 1 2 3 3 3 3 4 5 4 4 6 7 8 10 11 13 14 16 16 15 13 13 13 14 14 15 15 15 15 16 17 19 19 19 21 21 21 22 23 23 21 20 19 17 17 15 13 14 15 15 14 13 11 11 11 9 8 9 9 9 8 8 8 7 7 6 5 5 5 6 7 8 10 9 9 8 7 7 7 7 7 8 9
2 2 3 3 3 3 3 2 5 8 9 7 6 7 7 8 9 12 14 16 17 16 16 15 13 13 14 14 14 14 14 15 15 16 17 17 18 18 18 19 20 22 23 24 24 24 23 22 22 21 19 19 20 20 19 17 16 16 15 14 13 12 12 12 11 9 9 8 8 8 6 6 6 6 8 9 9 8 6 6 6 6 7 7 7 7 6
3 3 4 4 4 5 6 6 7 9 10 9 10 11 11 10 12 14 16 18 18 16 16 15 14 14 15 15 15 15 14 14 14 15 16 16 16 17 17 17 17 18 19 20 21 22 21 20 21 21 21 21 23 24 22 21 19 18 16 16 15 16 16 16 15 13 11 11 11 11 11 12 12 10 10 9 8 7 7 7 8 7 6 6 7 7 8
3 2 3 4 4 5 6 6 7 9 11 11 11 13 14 14 14 15 16 17 18 17 16 15 15 15 15 16 16 15 14 15 15 16 18 19 19 19 18 17 16 17 18 19 19 20 19 17 17 18 19 20 21 21 21 20 18 16 15 15 16 17 17 17 17 16 15 15 15 14 14 15 15 14 12 11 10 11 12 12 11 11 10 11 11 11 11
2 3 5 6 5 5 5 6 7 9 12 12 12 13 15 16 15 15 15 16 17 17 17 17 17 17 16 16 16 15 15 15 16 18 20 21 21 21 20 20 19 19 19 20 20 20 19 17 17 17 18 18 17 17 17 16 14 13 13 13 14 13 12 12 12 13 14 15 15 15 15 16 15 14 15 15 15 15 15 15 14 14 14 13 13 12 10
2 4 7 8 6 6 6 5 7 10 12 14 14 14 14 15 15 15 14 14 15 17 17 17 18 18 16 16 16 16 16 16 17 19 20 21 22 22 22 23 23 23 23 22 22 21 20 18 17 17 17 16 15 15 15 14 14 14 15 15 15 15 14 13 13 13 13 12 12 12 14 14 14 13 13 14 14 14 13 12 11 11 10 9 8 6 5
3 4 10 10 4 4 8 9 10 11 13 14 15 15 14 15 14 14 15 15 15 16 17 17 17 17 17 16 16 16 16 16 17 19 19 21 22 23 24 24 24 23 23 23 22 22 22 20 19 18 17 15 14 13 13 12 12 13 15 16 17 17 17 16 16 16 15 14 14 15 15 14 14 14 14 14 13 12 11 10 8 7 6 5 4 3 3
2 6 13 11 3 5 11 12 11 12 13 13 14 15 15 15 15 15 16 16 17 17 16 16 16 16 16 15 15 15 15 15 15 16 17 19 20 21 21 21 20 20 20 20 20 20 20 19 19 18 17 16 15 13 12 12 11 11 12 14 15 16 15 15 15 16 16 15 14 15 14 14 13 13 13 12 12 11 9 8 7 6 5 5 4 3 2
4 9 13 10 5 10 14 13 12 13 12 12 13 14 15 16 16 15 16 17 17 17 16 15 14 15 15 14 14 14 14 14 13 13 14 16 17 17 16 16 16 16 16 15 16 17 16 16 15 15 15 15 15 14 14 13 12 11 11 12 13 14 14 13 13 13 13 12 12 12 12 12 12 11 11 10 10 9 8 7 7 6 5 4 3 3 2
7 12 12 10 10 14 15 13 12 12 11 13 14 14 15 16 15 15 16 16 16 16 16 15 14 13 13 13 13 13 13 13 13 14 14 15 15 14 13 13 12 12 11 11 12 12 12 12 12 12 12 12 12 12 12 12 11 11 10 10 11 11 11 11 10 10 9 10 10 10 10 10 10 10 9 8 8 8 8 7 7 6 6 5 4 3 3
12 15 14 13 14 16 15 13 13 12 12 13 15 14 15 16 16 16 16 15 15 15 15 14 13 12 13 13 13 13 13 13 12 12 12 11 11 10 10 9 9 8 8 8 8 8 9 9 8 8 8 8 8 8 8 8 9 9 8 8 8 8 8 8 8 8 8 8 9 9 9 9 9 8 7 8 8 8 8 8 8 7 7 7 6 6 5
16 17 18 17 15 15 13 12 14 14 13 14 15 15 16 16 16 16 16 15 14 14 13 13 13 13 13 13 12 12 13 12 11 10 9 9 8 7 7 6 6 5 5 4 4 4 5 6 5 5 5 6 6 6 5 5 5 5 6 6 6 6 6 6 6 6 7 7 8 8 7 7 7 7 7 7 7 6 7 7 7 8 8 8 7 7 6
17 16 15 15 16 16 14 13 15 16 15 14 16 16 16 16 16 16 15 15 14 14 13 12 12 12 12 12 12 12 12 10 9 9 8 8 7 6 5 5 4 4 4 2 2 2 3 3 4 4 4 4 4 4 4 4 3 3 3 5 5 5 4 4 4 4 5 5 5 4 4 4 5 5 5 5 5 5 5 6 6 6 7 7 7 7 6
18 14 10 11 16 18 17 16 16 16 15 15 16 16 16 16 16 15 14 14 14 13 13 12 11 11 11 10 10 10 10 10 9 7 6 5 5 4 4 3 3 3 3 2 1 2 2 2 2 2 2 3 3 3 3 3 3 2 2 3 4 4 3 4 4 4 3 3 3 3 4 4 3 3 3 3 4 4 4 4 5 5 4 4 5 5 5
17 13 9 12 18 20 19 19 18 17 16 17 16 15 15 16 15 15 14 13 13 13 12 12 11 11 10 9 9 9 8 8 7 6 4 4 4 3 2 2 2 2 2 2 1 0 1 1 1 2 3 3 3 2 2 2 3 3 3 2 1 1 2 3 4 4 3 3 3 3 3 3 2 3 3 3 4 4 4 4 5 5 4 3 3 3 2
18 14 12 15 19 20 19 19 19 18 18 18 17 16 16 15 15 15 14 13 13 12 12 11 11 11 10 10 10 9 8 8 7 6 5 4 4 4 4 3 3 3 3 2 2 1 1 2 2 3 3 4 4 3 3 3 2 2 3 4 4 4 3 1 2 3 3 2 2 2 2 2 2 3 3 4 4 4 5 5 4 5 5 4 4 4 5
18 15 13 16 18 19 19 19 19 19 19 18 17 17 17 16 16 16 14 13 13 13 12 11 11 10 10 9 9 8 7 7 7 6 5 4 4 5 5 4 3 3 3 2 2 2 2 2 3 4 5 4 4 3 4 4 3 2 3 3 3 4 5 3 0 2 3 2 2 2 1 1 2 2 2 3 3 4 5 5 5 5 6 6 6 7 8
20 17 17 18 19 19 19 20 21 21 20 19 18 17 16 16 16 15 15 15 15 14 13 13 12 11 11 10 9 8 7 6 6 5 5 4 3 4 5 5 5 4 4 4 3 2 2 2 3 5 6 6 6 5 5 5 4 4 4 3 2 4 7 6 4 2 1 2 3 4 4 3 2 1 1 2 3 3 4 5 5 6 6 6 7 8 9
23 22 24 25 25 24 24 24 23 22 21 19 18 17 17 17 17 17 17 16 16 15 14 14 13 12 12 10 9 8 7 6 5 4 4 4 4 4 5 4 4 3 3 2 2 1 1 2 3 1 2 3 3 4 5 6 5 5 5 5 4 4 5 5 4 3 2 3 4 5 5 4 3 3 3 3 3 3 4 4 5 6 6 6 6 7 7
23 21 24 26 25 24 25 26 25 24 22 20 19 19 18 18 19 19 18 17 16 15 15 13 12 11 10 8 7 6 5 4 3 3 4 4 4 4 5 4 3 3 2 2 2 2 1 2 3 2 1 1 2 1 3 3 3 4 6 6 5 5 6 6 5 5 5 6 6 5 5 5 5 6 6 5 5 5 5 5 5 6 6 6 6 7 7
18 15 19 22 21 21 23 25 25 24 24 22 21 21 20 20 20 19 19 18 16 15 14 13 11 10 9 7 6 5 4 3 3 4 5 4 4 4 4 4 4 4 3 3 3 2 2 3 4 3 2 1 0 2 4 3 2 3 5 5 4 5 6 6 7 7 7 7 7 7 7 8 8 8 8 8 8 8 8 8 8 8 8 9 8 8 9
17 16 18 20 21 21 22 23 24 24 24 23 23 23 21 21 21 19 18 17 16 15 14 12 11 10 9 7 6 4 3 2 3 4 4 4 4 4 4 4 5 5 4 4 5 4 4 5 5 4 3 2 2 5 7 6 5 4 4 4 4 4 5 6 6 6 6 6 6 6 6 7 8 9 10 10 11 11 12 12 12 11 11 12 11 10 9
18 16 15 17 20 23 23 22 22 24 24 24 24 24 22 22 22 19 17 16 15 14 13 11 10 10 8 6 5 3 2 2 3 4 4 4 4 4 4 4 4 4 4 6 7 6 6 7 7 5 4 4 6 7 8 7 5 4 3 4 4 4 5 5 5 6 6 6 6 6 6 7 8 9 10 10 10 11 12 13 13 12 12 13 13 11 10
19 16 14 15 20 24 24 22 22 23 24 24 25 24 23 23 21 18 16 15 14 13 12 12 11 9 7 5 4 4 4 3 4 4 4 4 4 4 4 5 5 6 7 9 9 7 8 9 8 6 5 7 7 7 7 7 6 4 4 4 4 5 5 5 5 6 7 7 7 7 7 8 8 9 10 10 10 10 11 12 13 14 13 12 12 12 12
20 18 17 17 20 23 24 23 22 23 23 24 24 24 23 23 21 19 16 15 14 13 12 11 10 8 6 5 5 5 5 4 5 5 6 6 5 5 5 6 6 7 8 8 6 6 8 9 6 5 7 8 8 7 8 8 7 6 5 5 6 6 6 6 7 7 8 8 8 9 9 9 9 10 10 10 9 9 9 10 12 12 12 12 11 12 12
21 20 20 21 21 21 22 22 23 23 23 23 23 23 22 22 21 19 17 15 15 14 12 11 9 8 7 6 6 6 6 6 6 6 7 6 5 4 4 5 6 6 7 8 8 8 9 9 7 5 6 8 9 10 11 11 8 7 7 7 7 8 8 8 8 9 9 9 10 10 10 10 10 10 10 10 9 9 9 9 9 10 10 10 10 10 10
23 22 22 22 21 21 22 22 23 23 24 24 24 22 22 21 20 18 16 15 14 14 12 11 10 9 8 7 7 7 7 7 7 7 7 7 7 6 5 5 5 6 7 8 8 6 6 6 7 7 7 7 8 10 11 10 8 7 7 8 8 8 9 9 10 10 10 10 10 10 10 10 10 10 10 10 9 9 9 9 9 9 8 8 7 7 7
24 23 22 21 21 21 22 23 24 24 24 24 24 23 23 23 21 18 17 16 15 14 13 12 11 10 9 8 8 8 8 8 8 8 7 7 7 7 6 5 5 7 8 7 6 4 4 4 5 6 8 7 7 7 7 7 6 5 6 6 7 7 7 8 8 8 8 8 8 8 8 8 8 9 9 9 9 9 9 8 8 8 8 6 5 5 5
25 25 24 22 20 20 20 22 25 26 26 25 25 24 24 24 22 20 18 17 16 15 14 13 11 10 10 9 8 8 8 8 8 8 7 6 6 7 8 7 6 7 8 7 5 4 4 4 5 7 8 8 7 7 6 5 5 5 5 5 5 5 5 6 6 6 6 6 6 6 7 7 7 7 8 8 8 8 8 7 7 7 7 5 5 4 4
27 26 25 23 21 20 19 21 25 27 28 26 25 24 24 24 23 21 20 19 17 16 15 13 12 11 10 9 8 9 9 8 8 9 8 6 5 6 7 6 5 5 7 6 5 3 5 7 7 8 8 8 7 7 5 4 4 5 4 4 5 5 5 5 5 5 5 5 5 5 5 6 6 6 6 6 6 6 6 6 6 6 6 5 4 4 4
29 28 26 24 23 21 19 19 23 27 28 27 25 24 24 24 24 23 22 20 18 16 15 13 12 11 10 9 9 9 9 8 9 10 9 8 8 8 8 7 8 8 7 4 3 4 8 10 9 8 8 8 8 6 5 5 5 5 4 4 5 5 4 5 5 5 5 5 5 5 6 5 5 6 6 6 5 5 5 6 6 6 6 6 6 6 6
30 30 28 27 25 23 20 20 22 27 28 28 27 27 26 25 24 24 23 20 18 16 15 14 13 12 11 10 10 9 9 9 9 9 9 9 10 8 6 6 8 9 7 5 6 8 9 9 8 7 8 8 6 5 4 4 5 4 4 4 4 4 5 5 5 5 5 5 5 5 5 5 4 5 6 6 5 5 5 6 6 5 6 6 7 7 7
30 31 30 29 28 26 23 22 23 27 29 30 29 28 26 25 25 24 23 21 20 18 17 15 14 12 11 10 9 9 10 10 9 8 8 8 7 6 5 7 8 7 5 5 8 9 8 7 6 6 5 4 3 3 3 3 3 3 3 3 3 3 3 4 4 5 5 6 6 6 6 5 5 5 5 6 6 6 6 6 5 5 5 5 5 5 5
30 31 31 31 30 28 26 24 25 27 29 29 28 27 25 25 25 25 24 23 22 20 17 16 15 14 12 10 9 10 11 11 9 8 8 9 8 7 8 10 10 7 5 4 6 6 4 3 3 2 1 1 1 1 2 2 3 3 3 3 3 2 3 4 5 4 4 4 4 5 5 5 6 6 5 5 5 5 4 4 5 5 5 3 3 3 3
30 31 32 32 31 30 28 26 26 27 27 28 27 27 26 26 27 27 26 25 23 20 17 16 15 14 12 10 10 11 12 12 11 9 9 10 9 8 7 7 7 6 5 5 5 4 3 2 1 0 0 0 1 1 1 1 1 1 2 2 2 2 3 3 2 1 1 1 2 3 3 4 5 5 4 3 3 4 3 3 5 6 5 3 3 4 4
29 31 31 31 31 30 28 27 26 26 26 27 27 27 26 26 28 28 26 25 24 21 17 15 14 13 12 12 12 12 12 12 11 10 9 9 9 9 8 8 7 6 5 5 5 4 3 2 1 1 1 1 2 1 1 1 1 0 1 1 2 3 2 1 1 0 1 1 1 1 2 3 3 3 3 3 3 3 3 3 4 4 4 3 4 5 5
27 28 29 29 29 29 28 27 26 24 24 25 25 25 26 27 27 27 27 26 24 21 18 16 15 14 14 13 13 13 13 12 11 10 9 9 9 8 8 8 7 6 6 6 7 6 4 3 2 1 1 2 2 2 1 2 2 2 1 1 2 2 2 2 3 3 2 1 2 1 2 3 3 3 3 3 3 3 3 4 4 4 4 5 6 6 6
Wind_Direction
151 174 182 188 215 212 197 187 140 118 134 172 220 252 255 215 240 266 334 308 258 89 75 53 41 33 40 49 45 48 67 79 144 177 174 179 185 187 190 192 193 198 201 204 206 206 212 212 206 211 221 225 228 229 228 228 223 218 217 216 217 218 218 219 220 220 219 221 222 221 220 222 220 216 217 221 221 221 222 224 225 227 228 228 232 235 236
169 191 187 198 301 275 204 183 97 76 68 142 186 249 264 266 258 268 284 266 143 80 75 74 58 50 60 64 62 58 62 67 68 103 142 155 159 161 170 178 180 187 195 199 202 201 208 215 210 209 217 223 229 232 233 233 231 224 219 219 219 220 221 222 224 224 223 223 224 224 224 226 226 221 217 217 221 223 224 227 227 228 230 229 231 235 237
221 226 219 238 296 325 60 113 78 57 47 62 78 271 279 273 265 269 261 230 151 94 101 89 73 68 66 65 69 66 64 76 85 86 96 107 114 117 122 132 143 156 168 177 185 195 211 223 222 220 222 227 235 241 242 241 239 233 227 224 223 222 224 226 227 228 227 225 224 223 222 224 225 225 222 218 219 221 223 228 230 232 234 235 236 237 239
251 235 242 262 270 264 111 94 61 44 60 66 20 342 330 322 320 297 261 228 162 132 125 96 82 78 71 64 68 72 70 77 96 107 101 92 92 99 103 107 125 145 157 168 178 193 215 226 229 228 225 229 238 245 246 246 246 242 236 233 231 228 228 230 231 230 229 228 226 222 220 220 221 224 225 224 225 226 226 228 233 237 239 240 241 241 242
255 234 246 274 271 240 202 98 54 34 65 74 353 347 339 337 7 329 264 234 129 129 130 109 98 90 78 67 67 74 79 79 88 112 121 112 96 95 100 100 113 139 160 179 190 201 228 235 235 234 233 231 235 241 246 248 249 247 242 239 239 236 234 234 232 229 227 227 229 227 223 222 222 222 223 224 227 231 232 230 232 236 238 240 244 244 243
251 225 240 263 257 247 225 89 66 32 47 35 332 5 348 327 355 316 274 218 115 119 116 105 100 90 80 73 71 73 81 86 88 96 109 122 118 113 116 108 107 131 157 188 210 222 242 249 249 246 245 242 236 234 239 243 243 244 243 242 241 241 240 236 232 229 226 223 227 231 229 225 223 223 223 223 224 227 230 233 234 236 237 239 243 245 246
294 216 239 260 254 233 106 100 83 49 63 37 316 11 355 304 326 331 293 154 114 103 99 96 94 88 80 73 70 67 70 80 86 85 90 105 116 116 117 119 127 145 163 192 220 237 249 257 260 255 249 245 238 233 234 233 231 235 238 237 238 240 239 233 231 232 226 219 221 228 231 229 227 226 226 226 227 227 228 232 235 237 237 236 240 244 248
303 251 250 275 293 121 157 152 137 115 94 31 271 110 67 289 326 358 305 135 108 102 104 101 96 92 82 67 59 58 62 73 81 82 80 91 103 106 109 124 150 169 180 198 218 232 243 250 255 257 254 247 233 223 227 228 226 227 227 225 227 229 228 227 230 233 230 221 218 220 223 224 227 231 231 229 230 230 231 231 232 234 235 235 238 244 248
280 279 276 272 208 204 203 167 118 97 78 68 94 115 69 304 356 13 307 136 114 112 116 114 112 104 87 66 50 48 56 69 79 81 79 84 95 103 111 123 136 149 162 177 190 199 219 236 238 237 242 238 217 202 206 214 215 214 212 211 213 217 220 223 227 230 231 229 225 224 224 224 226 229 230 231 232 232 234 234 234 236 238 237 237 240 244
262 283 282 255 232 219 183 123 98 97 105 106 112 138 230 345 27 2 331 307 125 122 127 136 140 127 90 67 45 42 54 68 78 83 83 82 87 93 99 104 110 124 145 163 173 173 183 228 237 233 231 225 210 199 193 194 201 203 203 206 210 212 214 217 218 219 223 227 230 230 228 225 224 223 221 226 232 233 234 237 239 241 244 246 246 246 245
245 272 275 277 303 78 125 129 119 117 129 137 142 172 337 91 88 20 326 307 128 97 95 158 168 159 110 87 60 53 65 73 77 84 86 83 80 80 81 82 88 103 131 152 151 147 154 161 189 222 227 225 223 221 214 207 207 206 202 204 207 207 210 217 217 214 216 222 227 230 229 223 221 228 233 235 240 242 241 243 245 245 246 249 250 252 253
234 260 274 292 21 82 108 118 117 121 146 173 179 340 350 64 92 75 323 308 322 348 352 9 160 123 110 117 103 83 81 80 81 87 91 90 86 82 78 74 74 83 107 131 126 121 128 137 141 164 191 206 214 217 217 214 204 195 195 203 209 211 216 222 220 216 217 224 230 238 240 233 227 239 256 254 249 249 247 243 244 247 249 249 248 250 255
230 247 272 286 81 97 101 101 114 140 165 194 257 38 92 116 102 99 310 347 6 9 24 54 71 77 97 114 113 101 92 86 85 89 94 96 93 87 84 83 83 85 92 108 121 122 121 124 123 131 161 187 186 183 197 217 214 203 202 210 216 216 215 216 219 225 233 239 242 247 249 243 235 241 255 256 246 242 240 237 239 245 250 252 252 254 257
258 257 267 253 117 92 78 98 124 157 188 228 22 74 113 132 141 153 160 89 80 76 72 76 87 96 104 110 108 102 96 90 88 90 92 95 92 89 90 92 92 92 92 96 105 111 115 118 112 106 144 164 138 122 124 146 187 200 207 215 214 213 213 215 222 235 245 243 239 239 243 242 233 231 239 243 237 230 222 222 235 248 253 256 259 262 262
263 252 258 260 99 89 118 127 139 181 246 33 94 101 106 122 142 146 139 121 111 107 101 103 109 109 109 109 107 103 98 92 91 89 88 90 90 90 91 91 91 92 92 91 90 90 93 100 107 114 132 135 129 124 118 113 115 121 131 167 190 193 196 198 200 207 212 214 219 224 229 230 220 216 224 224 214 206 202 206 226 249 256 257 259 258 255
269 260 262 315 38 110 167 174 131 118 117 121 138 133 114 123 140 139 134 131 125 120 119 121 121 115 112 111 108 103 99 96 95 91 90 91 91 91 91 91 91 93 93 92 92 92 93 98 105 112 119 119 115 110 105 104 108 110 111 119 136 144 146 148 154 160 168 175 182 190 198 198 192 193 195 191 188 194 201 207 219 230 233 234 235 238 240
337 346 51 80 101 116 137 128 101 113 124 130 140 139 130 134 142 140 135 132 129 129 129 128 125 120 113 109 105 102 99 96 94 93 94 94 93 92 91 90 91 93 93 94 96 96 96 99 100 101 103 103 97 92 90 95 100 104 109 117 123 122 119 119 123 128 133 141 145 146 146 144 146 157 170 178 184 188 186 183 186 197 207 209 207 209 207
105 69 69 98 114 114 117 115 115 126 133 134 134 134 132 135 139 139 136 134 134 135 133 129 124 119 114 109 105 103 100 96 94 93 95 96 96 95 93 91 91 93 93 94 94 94 93 94 94 95 97 98 96 91 90 92 96 102 109 115 115 114 111 108 107 108 111 115 121 134 148 149 146 149 160 169 173 164 154 152 150 151 155 152 148 148 142
164 139 124 127 125 124 127 128 129 132 133 133 133 131 131 134 139 139 138 138 139 137 133 128 123 119 116 111 106 103 101 98 96 95 97 100 100 99 98 98 98 99 98 96 95 94 92 89 88 88 89 92 96 98 98 99 100 103 106 104 102 104 106 105 102 99 98 99 104 115 129 133 133 135 139 142 143 135 127 126 125 125 127 125 122 122 121
158 105 122 132 131 133 137 139 141 139 134 130 128 127 129 133 136 137 137 138 137 135 131 129 125 120 117 113 109 106 104 101 99 99 99 101 102 102 103 103 101 99 98 98 98 97 94 92 90 87 85 86 90 92 93 95 96 96 96 95 94 95 100 105 107 103 99 100 104 110 114 117 120 124 124 122 122 121 118 119 120 121 120 118 116 116 115
140 114 143 153 145 143 151 145 142 142 136 129 126 125 126 128 129 131 132 133 133 132 131 130 128 123 119 116 113 109 106 105 105 103 101 102 104 105 105 104 101 98 97 96 96 96 95 95 93 92 91 92 93 94 93 93 93 93 95 97 98 97 98 104 109 109 106 105 106 105 108 112 117 118 115 112 113 114 114 117 120 123 123 121 120 121 122
192 153 164 172 167 145 153 151 143 142 138 131 129 129 129 131 132 131 129 128 129 131 132 132 130 125 122 121 117 112 110 108 107 106 106 107 107 108 107 104 100 98 95 93 92 92 92 92 91 91 91 92 92 96 100 101 101 101 102 104 105 106 108 110 111 110 109 109 108 104 103 104 108 109 107 105 105 107 110 112 115 121 127 137 153 169 178
57 135 158 172 171 124 141 148 145 143 141 136 134 134 134 136 137 136 135 133 131 132 134 134 131 127 126 126 122 117 115 112 109 108 108 109 110 111 110 107 102 99 97 93 91 90 88 88 88 88 89 89 87 88 92 95 100 105 110 112 111 111 115 118 118 115 114 114 115 113 110 108 107 108 110 111 111 112 114 117 120 122 124 136 152 169 185
90 140 153 164 150 128 137 145 142 142 144 140 135 134 134 136 138 138 137 136 134 133 133 133 133 131 129 128 126 124 121 118 115 114 113 113 113 112 110 108 104 101 98 94 91 89 86 84 84 85 86 88 88 87 87 90 96 103 111 117 117 117 120 122 121 118 117 117 116 115 113 112 110 107 108 111 113 114 114 117 123 128 133 142 151 165 183
134 140 139 141 134 127 130 135 134 136 141 140 136 135 134 135 137 136 135 134 134 135 133 132 134 135 133 132 131 130 128 126 125 124 121 118 116 113 112 112 107 101 96 90 87 87 85 82 81 81 82 84 86 87 88 91 96 101 108 116 123 127 130 129 127 124 122 120 120 117 114 113 111 108 108 109 110 113 116 118 121 127 133 139 145 148 145
136 136 133 130 127 127 131 134 133 135 138 138 136 135 135 136 135 134 134 134 134 134 133 131 131 131 132 133 135 136 137 137 132 127 124 121 118 115 115 117 114 107 101 94 86 82 80 78 77 77 79 82 83 83 86 90 94 96 101 108 119 127 132 136 138 135 131 129 128 128 128 125 120 117 119 119 115 112 114 116 119 125 127 129 131 128 119
144 143 138 134 136 142 144 141 139 139 139 138 138 137 137 139 137 134 134 133 133 135 134 132 131 130 130 132 135 139 142 141 135 132 131 129 128 127 126 126 125 120 113 105 91 78 74 74 73 70 72 76 74 73 75 80 85 90 95 99 103 110 122 135 143 146 147 146 142 139 136 130 126 129 133 130 122 117 118 119 121 123 123 123 125 123 116
151 150 149 153 158 158 153 145 144 144 141 141 142 140 139 140 139 136 135 133 133 134 134 134 133 132 133 136 138 140 143 142 139 140 141 136 137 141 139 136 134 131 124 108 74 51 55 68 73 68 63 60 57 57 56 55 61 76 94 100 101 101 105 117 132 150 161 157 148 145 141 133 132 138 139 136 135 137 137 137 134 130 129 130 129 125 118
158 158 158 161 160 156 150 147 148 147 144 145 145 143 142 142 139 137 135 133 132 133 133 133 132 130 133 137 137 140 145 145 142 142 142 139 141 144 144 144 141 133 125 106 70 37 30 48 59 46 35 33 29 28 28 27 29 28 46 96 116 124 133 136 137 145 158 160 162 164 157 146 147 153 155 160 165 159 153 153 153 154 154 149 140 134 129
166 163 153 151 158 159 153 151 153 152 150 150 148 147 148 145 140 137 135 133 133 132 131 132 130 126 127 130 129 131 136 138 138 140 144 150 157 155 152 160 155 145 155 162 154 199 304 341 338 322 325 330 329 332 336 337 347 358 357 357 54 155 187 176 160 150 152 167 176 167 153 149 159 169 181 196 197 188 187 184 178 180 190 187 164 160 172
167 164 152 150 159 161 155 154 157 156 154 155 153 152 152 150 145 142 140 138 137 136 134 135 134 132 135 139 139 135 129 127 129 134 138 155 180 187 180 172 158 151 162 173 173 200 239 255 269 282 295 304 304 295 280 278 307 354 350 339 337 333 324 291 159 154 155 164 175 163 153 164 173 174 186 201 208 209 214 213 203 199 208 213 205 203 218
160 157 155 154 159 160 158 159 160 159 159 161 159 157 156 154 150 148 146 144 143 142 139 139 140 141 146 150 150 148 147 147 149 150 147 161 198 212 213 212 202 187 183 186 190 204 211 228 255 266 269 275 279 276 271 272 274 288 312 332 339 327 321 323 266 178 177 187 209 222 199 173 167 165 177 191 198 206 212 215 218 221 222 221 220 219 224
158 155 161 164 163 164 164 164 164 164 164 165 162 159 158 156 153 151 149 146 144 141 139 138 138 139 138 135 131 132 137 144 156 163 160 162 189 216 224 222 219 223 230 229 227 233 227 225 248 265 269 267 263 258 258 260 261 262 267 267 279 295 302 304 297 273 223 200 217 225 222 212 197 188 194 196 194 200 205 212 224 234 232 229 230 231 230
183 182 183 181 178 177 175 170 168 167 166 164 162 160 158 157 155 153 150 147 144 142 140 137 133 130 127 122 116 111 111 118 136 156 161 162 180 201 204 198 199 213 222 211 183 157 188 211 221 251 302 295 287 274 260 254 251 254 255 246 240 256 273 282 287 283 253 235 239 242 243 242 237 233 236 230 218 217 220 220 227 238 242 240 242 243 241
199 198 193 188 187 185 180 174 170 168 166 165 164 162 160 160 158 154 151 150 149 147 144 139 132 129 130 128 120 113 112 121 137 154 162 166 178 186 183 178 179 186 190 189 177 166 194 222 207 168 126 50 16 332 265 255 256 255 252 250 249 246 242 245 250 248 239 239 246 250 253 252 246 241 242 240 235 236 241 238 238 245 247 245 251 258 254
195 193 190 188 185 182 179 176 174 172 168 166 165 163 162 163 162 156 153 153 154 152 150 146 141 140 144 146 143 141 142 144 147 158 168 169 173 176 173 174 186 197 205 227 233 230 243 248 238 219 200 171 15 267 248 247 257 259 256 259 269 267 257 249 246 243 241 243 244 244 246 248 251 256 261 257 251 251 252 250 250 253 254 254 257 262 261
190 192 195 192 184 178 179 181 179 176 172 170 169 167 166 166 165 160 156 158 160 159 156 154 152 153 157 160 161 165 174 172 168 174 180 179 178 180 180 190 204 209 214 228 238 242 246 248 250 251 246 249 269 270 263 258 259 267 277 286 282 274 270 267 263 262 260 259 257 254 255 259 264 267 266 261 256 255 255 254 253 255 257 258 256 255 255
189 192 199 198 188 180 182 187 187 184 179 176 174 172 171 170 169 166 162 164 166 164 162 162 163 165 169 172 177 196 237 234 194 191 198 196 188 186 193 203 207 205 211 224 230 234 239 244 245 245 245 255 267 273 272 268 262 265 279 285 278 274 273 270 268 267 269 271 274 276 277 277 277 275 274 272 269 266 263 261 259 259 261 262 260 254 249
187 182 184 189 188 186 187 190 191 189 185 182 179 177 176 176 174 170 169 172 173 172 172 172 173 176 182 189 203 232 256 249 210 199 204 205 199 197 204 209 209 207 214 223 229 233 236 238 240 240 246 253 261 270 273 268 260 263 273 274 270 273 275 271 268 266 267 271 276 278 278 278 278 278 278 278 277 276 276 275 273 271 270 270 265 256 246
183 176 171 174 183 189 191 191 192 191 191 189 186 182 180 179 177 176 177 180 181 181 183 184 183 188 200 211 220 237 249 240 213 201 203 209 214 213 213 220 227 227 219 214 218 229 231 227 226 240 253 253 254 261 266 262 260 268 279 279 275 273 273 273 274 272 272 275 278 279 281 281 279 278 279 279 278 278 279 279 280 279 276 274 270 261 251
178 176 174 174 178 184 188 192 193 194 193 193 191 188 184 181 180 182 185 188 189 189 191 192 192 199 212 221 223 225 225 219 211 207 205 207 211 212 211 215 223 225 217 210 212 226 232 229 227 240 258 260 256 257 260 262 267 274 278 277 277 275 273 274 274 274 275 276 276 277 280 281 279 279 281 281 280 280 279 279 280 280 277 274 272 262 253
177 178 180 181 181 183 187 190 193 195 195 195 194 191 186 182 183 187 190 193 195 196 196 198 204 214 225 229 221 214 212 211 208 208 207 203 198 200 209 214 213 212 212 213 217 226 238 242 242 246 254 261 263 263 264 266 270 274 276 275 274 273 272 273 274 275 276 278 278 278 279 280 278 279 280 279 281 284 285 283 283 282 280 278 274 263 254
180 182 183 184 185 186 189 191 192 193 195 194 193 191 187 185 187 192 196 199 201 203 204 209 217 225 235 236 224 213 213 214 208 205 208 207 199 192 190 197 215 222 215 203 203 220 235 241 248 252 254 261 268 272 274 276 277 276 273 272 272 273 274 275 277 278 280 281 281 281 281 279 278 279 280 279 280 282 284 286 288 288 286 283 275 264 254
183 185 186 185 183 183 188 191 191 191 191 190 191 191 190 189 192 197 200 203 205 208 211 217 224 229 235 235 222 207 209 213 206 198 199 204 204 200 193 188 205 226 220 199 190 217 234 233 245 258 262 265 267 270 274 280 282 278 275 275 277 279 278 277 279 282 282 281 280 280 279 278 278 278 277 276 275 277 281 284 285 287 290 289 278 267 258
188 188 189 188 186 184 186 189 191 190 189 187 188 191 193 195 198 203 206 208 211 212 214 219 226 230 231 228 217 210 211 209 200 193 190 188 200 220 218 200 192 215 221 205 191 216 240 243 250 261 266 268 270 272 273 269 264 266 271 276 277 275 273 272 273 274 273 274 278 281 281 281 282 282 279 273 264 262 267 269 267 271 282 283 268 252 243
191 190 191 191 191 188 186 187 190 190 188 187 188 192 195 199 204 208 211 213 215 215 216 221 228 229 226 221 217 217 215 206 196 194 192 186 190 203 208 196 192 206 217 203 184 226 250 257 263 269 274 275 276 274 265 255 252 250 251 257 263 267 269 270 270 268 268 269 267 263 263 266 272 280 284 283 276 271 276 280 280 281 280 270 258 253 251
194 192 192 193 193 191 186 186 188 190 189 189 191 193 196 200 206 210 212 213 213 213 215 221 227 229 227 226 222 214 202 194 194 196 195 191 194 200 201 198 206 215 214 199 202 227 251 268 277 280 281 281 279 267 250 249 252 246 236 240 249 255 258 262 264 264 265 265 261 259 263 268 270 272 279 287 293 290 287 287 291 293 285 272 266 266 266
197 194 193 194 193 192 188 187 188 191 192 193 194 196 198 202 206 209 209 209 209 210 215 222 227 229 230 231 225 208 191 185 191 200 197 188 187 198 211 217 223 225 218 215 230 245 261 275 281 283 286 284 275 252 236 243 249 240 228 228 233 240 251 260 262 260 260 261 263 264 267 271 272 269 271 278 282 279 275 277 281 282 281 277 270 263 258
197 195 194 194 194 193 191 189 190 192 194 195 197 199 202 204 205 205 206 207 208 210 214 218 223 226 227 224 215 202 192 185 185 194 193 183 179 195 217 226 229 227 214 218 244 260 262 254 260 281 302 278 225 207 218 237 243 234 226 219 208 212 233 236 232 234 241 254 262 261 256 254 259 259 255 259 267 267 263 266 262 250 242 244 249 250 253
196 195 195 195 195 195 193 191 192 195 196 197 199 202 204 204 204 203 204 205 207 207 207 208 213 218 219 211 200 197 195 190 185 184 185 182 183 191 204 215 223 221 207 206 226 240 230 208 220 298 24 109 127 142 225 256 262 259 249 218 174 187 230 238 230 233 260 245 256 264 255 243 248 247 233 224 245 251 240 241 251 244 230 221 237 250 251
194 194 195 195 196 196 196 195 196 198 199 200 203 205 206 205 204 204 204 205 205 202 198 195 198 203 203 195 190 191 193 191 188 188 188 186 187 192 197 203 213 218 211 203 205 206 194 178 168 147 111 108 104 97 50 34 67 69 267 173 150 170 206 202 102 348 274 219 176 202 234 225 224 227 217 214 233 238 225 224 245 250 241 236 243 248 249
192 193 194 195 197 197 198 199 202 203 204 206 208 209 206 203 201 202 204 205 204 200 193 190 192 194 192 188 188 190 189 187 188 193 193 190 190 197 205 210 212 213 206 198 194 192 188 184 177 159 143 137 128 118 92 72 83 95 108 123 132 153 179 167 162 183 217 182 121 138 228 221 204 202 216 228 234 233 229 231 238 242 245 248 250 248 247